Regional Weather Roundup
Issued by NWS

Home | Current Version | Previous Version | Graphics & Text | Print | Product List | Glossary On
Versions: 1 2 3 4 5 6 7 8 9 10 11 12 13 14 15 16 17 18 19 20 21 22 23 24 25 26 27 28 29 30 31 32 33 34 35 36 37 38 39 40 41 42 43 44 45 46 47 48 49 50
000
ASUS43 KLOT 290108
RWRIL

ILLINOIS REGIONAL WEATHER ROUNDUP
NATIONAL WEATHER SERVICE CHICAGO/ROMEOVILLE IL
800 PM CDT TUE MAR 28 2017

NOTE: "FAIR" INDICATES FEW OR NO CLOUDS BELOW 12,000 FEET WITH NO
SIGNIFICANT WEATHER AND/OR OBSTRUCTIONS TO VISIBILITY.

* THESE STATIONS ARE NOT UNDER NWS QUALITY CONTROL. THEY ALSO MAY NOT
  REPORT WEATHER SUCH AS PRECIPITATION OR FOG.

ILZ001-002-007-009-015-016-024-290200-
NORTHWEST ILLINOIS

CITY           SKY/WX    TMP DP  RH WIND       PRES   REMARKS
MOLINE         CLOUDY    48  39  71 NE8       30.16R
STERLING*      CLEAR     44  40  85 CALM      30.17R
SAVANNA*       CLEAR     45  40  84 CALM      30.16S
$$

ILZ003-004-008-010-011-017-018-290200-
NORTH CENTRAL ILLINOIS

CITY           SKY/WX    TMP DP  RH WIND       PRES   REMARKS
ROCKFORD       PTCLDY    49  37  63 E10       30.19R
FREEPORT*      CLEAR     46  39  76 CALM      30.17R
ROCHELLE*      CLEAR     47  40  77 E8        30.16S
DE KALB*       CLEAR     43  37  78 E8        30.18R
PERU*          CLOUDY    47  39  75 SE5       30.16S
$$

ILZ005-006-012>014-019>023-290200-
NORTHEAST ILLINOIS

CITY           SKY/WX    TMP DP  RH WIND       PRES   REMARKS
CHICAGO-OHARE  CLOUDY    42  36  79 NE5       30.18R
CHICAGO-MIDWAY MOCLDY    43  37  79 NE7       30.18R
AURORA         CLEAR     44  35  70 NE9       30.17R
LANSING*       CLOUDY    40  38  96 NE7       30.19S
JOLIET*        CLEAR     44  39  82 E7        30.18R
WAUKEGAN       FOG       35  35 100 NE6       30.19R VSB 1/4 WCI  30
DUPAGE AIRPORT CLEAR     41  37  86 E7        30.17R
KANKAKEE*      CLOUDY    42  37  82 NE8       30.19R
WHEELING       CLOUDY    37  37 100 NE5       30.20S WCI  33
MORRIS*        CLEAR     44  38  79 CALM      30.17R
ROMEOVILLE*    CLOUDY    43  39  88 E10       30.17R
NORTHERLY ISL    N/A     38  36  92 MISG        N/A
$$

LMZ740>746-290200-
SOUTHERN LAKE MICHIGAN

STATION/POSITION SKY/WX   TEMP    WIND        PRES    VSBY  WAVE
                          AIR SEA DIR/SP/G                  HT/PER
                          (F)     (DEG/KT/KT) (MB)    (MI)  (FT/S)
HARRISON CRIB              37     340/  9/  9   N/A
BURNHAM HARBOR             38     360/  6/ 10   N/A
CALUMET HARBOR             38     340/  9/ 11 1021.5R
BURNS HARBOR               39      40/  6/  8 1022.7R
MICHIGAN CITY              38      20/  7/  8   N/A
$$

ILZ025>027-034>036-040-047-049-050-058-095>099-290200-
WEST-CENTRAL ILLINOIS

CITY           SKY/WX    TMP DP  RH WIND       PRES   REMARKS
QUINCY         CLOUDY    52  47  83 NE9       30.10R
GALESBURG*     CLOUDY    48  42  81 NE10      30.14S
MACOMB*        CLOUDY    50  46  86 NE10      30.15R
JACKSONVILLE*  CLOUDY    51  47  85 NE9       30.12R
PITTSFIELD*    CLOUDY    53  47  81 NE7       30.12R
$$

ILZ028>032-037-038-041>044-048-051>054-059>061-290200-
CENTRAL ILLINOIS

CITY           SKY/WX    TMP DP  RH WIND       PRES   REMARKS
PONTIAC        CLOUDY    47  44  90 E5        30.17S
BLOOMINGTON    CLOUDY    46  41  82 NE12      30.15S
DECATUR        CLOUDY    51  43  74 NE15      30.12R
PEORIA         CLOUDY    50  43  77 NE8       30.14S
LACON*         CLOUDY    47  41  82 E7        30.16S
LINCOLN*       CLOUDY    50  46  85 NE13      30.13F
SPRINGFIELD    CLOUDY    53  46  77 NE7       30.12S
TAYLORVILLE    CLOUDY    52  46  82 NE8       30.11F
$$

ILZ033-039-045-046-055>057-062-063-290200-
EAST-CENTRAL ILLINOIS

CITY           SKY/WX    TMP DP  RH WIND       PRES   REMARKS
CHAMPAIGN      CLOUDY    49  40  71 NE12      30.14R
RANTOUL*       CLOUDY    47  41  79 NE10      30.16R
MATTOON        CLOUDY    52  46  80 NE15      30.11R
PARIS*         CLOUDY    49  44  81 N9        30.14R
$$

ILZ079-100>102-290200-
SOUTHWEST ILLINOIS

CITY           SKY/WX    TMP DP  RH WIND       PRES   REMARKS
ALTON          CLOUDY    54  48  82 NE6       30.09S
BELLEVILLE     CLOUDY    56  49  77 N7        30.07S
CAHOKIA*       CLOUDY    57  47  69 NE8       30.08S
SPARTA*        CLOUDY    54  49  82 NE3       30.09S
$$

ILZ064>066-069>071-074>076-080>082-084>086-088>090-092>094-290200-
SOUTH-CENTRAL ILLINOIS

CITY           SKY/WX    TMP DP  RH WIND       PRES   REMARKS
CARBONDALE     CLOUDY    56  50  80 N7        30.06F
CAIRO*         CLOUDY    58  51  80 N9        30.04S
EFFINGHAM*     CLOUDY    56  48  75 N5        30.11S
MARION         CLOUDY    57  50  77 CALM      30.07F
MT. VERNON     CLOUDY    59  49  69 N3        30.08R
CENTRALIA*     CLOUDY    58  51  77 NE6       30.07S
SALEM*         CLOUDY    58  49  72 N8        30.09R
METROPOLIS*    CLOUDY    59  53  80 N3        30.06R
$$

ILZ067-068-072-073-078-083-087-091-290200-
SOUTHEAST ILLINOIS

CITY           SKY/WX    TMP DP  RH WIND       PRES   REMARKS
LAWRENCEVILLE  CLOUDY    59  50  72 N9        30.09R
FLORA*         CLOUDY    59  49  69 NE8       30.09R
FAIRFIELD*     CLOUDY    58  51  77 CALM      30.07R
HARRISBURG*    CLOUDY    56  53  90 N3        30.07S
ROBINSON*      CLOUDY    56  49  76 N8        30.11R
CARMI*         PTCLDY    55  51  87 N6        30.06R
$$

ABBREVIATIONS USED IN REMARKS
   TC - TEMPERATURE IN CELSIUS
  WCI - WIND CHILL INDEX
   HX - HEAT INDEX
  VSB - VISIBILITY
$$





USA.gov is the U.S. government's official web portal to all federal, state and local government web resources and services.